Change the Weather History Date:

Wednesday, September 11, 2013

  Actual Average Record
Temperature  
Mean Temperature 79 °F 64 °F  
Max Temperature 89 °F 74 °F 90 °F (1983)
Min Temperature 68 °F 53 °F 39 °F (1967)
Degree Days  
Heating Degree Days 0 3  
Month to date heating degree days 18 26  
Since 1 July heating degree days 39 50  
Cooling Degree Days 14 2  
Month to date cooling degree days 45 27  
Year to date cooling degree days 653 500  
Growing Degree Days 28 (Base 50)    
Moisture  
Dew Point 70 °F    
Average Humidity 78    
Maximum Humidity 100    
Minimum Humidity 55    
Precipitation  
Precipitation T in 0.12 in 1.63 in (1960)
Month to date precipitation 0.47 1.28  
Year to date precipitation 19.48 22.20  
Sea Level Pressure  
Sea Level Pressure 30.13 in    
Wind  
Wind Speed 4 mph (WSW)    
Max Wind Speed 14 mph    
Max Gust Speed 18 mph    
Visibility 6 miles    
Events Rain , Thunderstorm    
T = Trace of Precipitation, MM = Missing Value Source: NWS Daily Summary

Daily Weather History Graph

Daily Weather History Graph

Search for Another Location

Airport or City:

Trip Planner

Search our weather history database for the weather conditions in past years. The results will help you decide how hot, cold, wet, or windy it might be!

Date:

Astronomy

Sep. 11, 2013 Rise Set
Actual Time 6:50 AM EDT 7:28 PM EDT
Civil Twilight 6:23 AM EDT 7:55 PM EDT
Nautical Twilight 5:50 AM EDT 8:28 PM EDT
Astronomical Twilight 5:17 AM EDT 9:01 PM EDT
Moon 1:17 PM EDT (9/11) 11:21 PM EDT (9/11)
Length of Visible Light 13h 32m
Length of Day
12h 37m
Waxing Crescent, 38% of the Moon is Illuminated
Sep 11
Waxing Crescent
Sep 12
First Quarter
Sep 19
Full
Sep 26
Last Quarter
Oct 4
New

Hourly Weather History & Observations

Time (EDT) Temp. Heat Index Dew Point Humidity Pressure Visibility Wind Dir Wind Speed Gust Speed Precip Events Conditions
12:53 AM 75.0 °F - 71.1 °F 87% 30.16 in 7.0 mi South 5.8 mph - N/A   Clear
1:53 AM 73.9 °F - 70.0 °F 87% 30.15 in 6.0 mi SSW 4.6 mph - N/A   Clear
2:53 AM 72.0 °F - 69.1 °F 91% 30.15 in 4.0 mi SSW 4.6 mph - N/A   Clear
3:53 AM 72.0 °F - 69.1 °F 91% 30.14 in 4.0 mi Calm Calm - N/A   Clear
4:53 AM 71.1 °F - 69.1 °F 93% 30.14 in 3.0 mi Calm Calm - N/A   Clear
5:53 AM 70.0 °F - 69.1 °F 97% 30.15 in 3.0 mi Calm Calm - N/A   Clear
6:20 AM 68.0 °F - 66.2 °F 94% 30.19 in 2.5 mi Calm Calm - N/A   Clear
6:53 AM 68.0 °F - 66.9 °F 96% 30.17 in 1.0 mi Calm Calm - N/A   Clear
7:13 AM 69.8 °F - 68.0 °F 94% 30.20 in 2.0 mi Calm Calm - N/A   Clear
7:26 AM 69.8 °F - 68.0 °F 94% 30.20 in 1.5 mi Calm Calm - N/A   Clear
7:53 AM 71.1 °F - 70.0 °F 96% 30.17 in 2.0 mi Calm Calm - N/A   Clear
8:17 AM 73.4 °F - 71.6 °F 94% 30.20 in 3.0 mi Calm Calm - N/A   Clear
8:53 AM 77.0 °F - 72.0 °F 84% 30.17 in 5.0 mi SSW 6.9 mph - N/A   Haze
9:53 AM 81.0 °F 85.2 °F 72.0 °F 74% 30.17 in 7.0 mi SSW 5.8 mph - N/A   Clear
10:53 AM 84.0 °F 89.6 °F 72.0 °F 67% 30.16 in 8.0 mi Variable 5.8 mph - N/A   Mostly Cloudy
11:53 AM 84.9 °F 90.7 °F 72.0 °F 65% 30.14 in 9.0 mi WNW 5.8 mph - N/A   Scattered Clouds
12:53 PM 88.0 °F 95.6 °F 73.0 °F 61% 30.12 in 9.0 mi WSW 5.8 mph - N/A   Scattered Clouds
1:10 PM 89.6 °F 98.2 °F 73.4 °F 59% 30.15 in 9.0 mi SSW 8.1 mph - N/A Thunderstorm Partly Cloudy
1:44 PM 84.2 °F 89.6 °F 71.6 °F 66% 30.14 in 8.0 mi WSW 6.9 mph - N/A   Clear
1:53 PM 86.0 °F 93.0 °F 73.0 °F 65% 30.09 in 8.0 mi WSW 9.2 mph - N/A   Clear
2:53 PM 87.1 °F 94.5 °F 73.0 °F 63% 30.07 in 8.0 mi SSW 9.2 mph - 0.00 in   Clear
3:53 PM 88.0 °F 92.9 °F 70.0 °F 55% 30.06 in 10.0 mi SSW 9.2 mph - N/A   Partly Cloudy
4:53 PM 81.0 °F 84.4 °F 70.0 °F 69% 30.06 in 8.0 mi West 10.4 mph - N/A   Clear
5:04 PM 80.6 °F 83.9 °F 69.8 °F 70% 30.10 in 9.0 mi WNW 6.9 mph - N/A Thunderstorm Thunderstorm
5:19 PM 80.6 °F 83.9 °F 69.8 °F 70% 30.11 in 8.0 mi NW 8.1 mph - N/A   Clear
5:53 PM 78.1 °F - 66.9 °F 68% 30.08 in 10.0 mi WNW 4.6 mph - 0.00 in Rain Light Rain
6:53 PM 77.0 °F - 68.0 °F 74% 30.06 in 7.0 mi Calm Calm - 0.00 in   Clear
7:53 PM 73.0 °F - 66.0 °F 79% 30.07 in 10.0 mi Calm Calm - N/A   Clear
8:53 PM 72.0 °F - 66.0 °F 81% 30.07 in 10.0 mi Calm Calm - 0.00 in   Clear
9:53 PM 70.0 °F - 66.9 °F 90% 30.06 in 8.0 mi Calm Calm - N/A   Clear
10:53 PM 70.0 °F - 66.9 °F 90% 30.06 in 7.0 mi WSW 4.6 mph - N/A   Clear
11:53 PM 71.1 °F - 68.0 °F 90% 30.04 in 7.0 mi SW 6.9 mph - N/A   Partly Cloudy